Weather History for Harrison, AR

Change the Weather History Date:

Friday, September 6, 2013

  Actual Average Record
Temperature  
Mean Temperature 73 °F 73 °F  
Max Temperature 87 °F 84 °F 104 °F (1939)
Min Temperature 59 °F 62 °F 41 °F (1950)
Degree Days  
Heating Degree Days 0 0  
Month to date heating degree days 0 0  
Since 1 July heating degree days 1 1  
Cooling Degree Days 8 8  
Month to date cooling degree days 47 53  
Year to date cooling degree days 1191 1264  
Growing Degree Days 22 (Base 50)    
Moisture  
Dew Point 61 °F    
Average Humidity 70    
Maximum Humidity 97    
Minimum Humidity 42    
Precipitation  
Precipitation 0.00 in 0.13 in 2.52 in (1910)
Month to date precipitation 0.01 0.75  
Year to date precipitation 32.83 29.71  
Snow  
Snow 0.00 in 0.00 in - ()
Month to date snowfall 0.0 0.0  
Since 1 July snowfall 0.0 0.0  
Since 1 September snowfall 0.0 0.0  
Snow Depth 0.00 in    
Sea Level Pressure  
Sea Level Pressure 30.11 in    
Wind  
Wind Speed 4 mph (SE)    
Max Wind Speed 8 mph    
Max Gust Speed 13 mph    
Visibility 9 miles    
Events      
T = Trace of Precipitation, MM = Missing Value Source: NWS Daily Summary

Daily Weather History Graph

Daily Weather History Graph

Search for Another Location

Airport:

Trip Planner

Search our weather history database for the weather conditions in past years. The results will help you decide how hot, cold, wet, or windy it might be!

Date:

Astronomy

Sep. 06, 2013 Rise Set
Actual Time 6:48 AM CDT 7:32 PM CDT
Civil Twilight 6:22 AM CDT 7:58 PM CDT
Nautical Twilight 5:51 AM CDT 8:29 PM CDT
Astronomical Twilight 5:19 AM CDT 9:01 PM CDT
Moon 7:57 AM CDT (9/6) 8:02 PM CDT (9/6)
Length of Visible Light 13h 36m
Length of Day
12h 44m
New Moon, 2% of the Moon is Illuminated
Sep 6
New Moon
Sep 12
First Quarter
Sep 19
Full
Sep 26
Last Quarter
Oct 4
New

Hourly Weather History & Observations

Time (CDT) Temp. Heat Index Dew Point Humidity Pressure Visibility Wind Dir Wind Speed Gust Speed Precip Events Conditions
12:53 AM 64.0 °F - 60.1 °F 87% 30.15 in 10.0 mi ESE 3.5 mph - N/A   Clear
1:53 AM 63.0 °F - 60.1 °F 90% 30.14 in 10.0 mi SSE 4.6 mph - N/A   Clear
2:53 AM 63.0 °F - 60.1 °F 90% 30.12 in 10.0 mi ESE 4.6 mph - N/A   Clear
3:53 AM 60.1 °F - 57.9 °F 93% 30.12 in 9.0 mi Calm Calm - N/A   Clear
4:53 AM 59.0 °F - 57.9 °F 96% 30.12 in 6.0 mi SSE 4.6 mph - N/A   Clear
5:53 AM 59.0 °F - 57.9 °F 96% 30.13 in 7.0 mi Calm Calm - N/A   Clear
6:53 AM 59.0 °F - 57.9 °F 96% 30.14 in 5.0 mi SE 3.5 mph - 0.01 in   Clear
7:53 AM 61.0 °F - 59.0 °F 93% 30.17 in 7.0 mi Calm Calm - N/A   Clear
8:53 AM 62.1 °F - 60.1 °F 93% 30.17 in 7.0 mi SE 3.5 mph - N/A   Clear
9:53 AM 72.0 °F - 62.1 °F 71% 30.17 in 10.0 mi SE 4.6 mph - N/A   Clear
10:53 AM 78.1 °F - 62.1 °F 58% 30.16 in 10.0 mi SE 4.6 mph - N/A   Clear
11:53 AM 81.0 °F 81.9 °F 62.1 °F 52% 30.16 in 10.0 mi Variable 5.8 mph - N/A   Clear
12:53 PM 82.9 °F 83.3 °F 61.0 °F 47% 30.14 in 10.0 mi SE 5.8 mph - N/A   Clear
1:53 PM 84.9 °F 85.4 °F 62.1 °F 46% 30.11 in 10.0 mi Variable 3.5 mph - N/A   Clear
2:53 PM 84.9 °F 85.0 °F 61.0 °F 44% 30.09 in 10.0 mi Variable 3.5 mph - N/A   Clear
3:53 PM 84.9 °F 85.4 °F 62.1 °F 46% 30.07 in 10.0 mi SE 5.8 mph - N/A   Clear
4:53 PM 86.0 °F 86.1 °F 61.0 °F 43% 30.06 in 10.0 mi SE 5.8 mph - N/A   Clear
5:53 PM 84.0 °F 84.4 °F 61.0 °F 46% 30.05 in 10.0 mi SE 6.9 mph - N/A   Clear
6:53 PM 82.0 °F 82.4 °F 60.1 °F 47% 30.05 in 10.0 mi ESE 6.9 mph - N/A   Clear
7:53 PM 77.0 °F - 61.0 °F 58% 30.04 in 10.0 mi SE 3.5 mph - N/A   Clear
8:53 PM 75.0 °F - 62.1 °F 64% 30.05 in 10.0 mi SE 5.8 mph - N/A   Clear
9:53 PM 72.0 °F - 62.1 °F 71% 30.05 in 10.0 mi Calm Calm - N/A   Clear
10:53 PM 72.0 °F - 63.0 °F 73% 30.04 in 10.0 mi Calm Calm - N/A   Clear
11:53 PM 66.9 °F - 63.0 °F 87% 30.05 in 10.0 mi SSE 4.6 mph - N/A   Clear